星链-5971 (STARLINK-5971 )

导读

STARLINK-5971是由美国发射的星链卫星,于2023年6月12日发射入轨,属于SpaceX公司打造的星链星座卫星之一。该卫星主要用于为全球提供低延迟、高速率的宽带互联网服务,尤其能覆盖偏远地区等网络基础设施薄弱区域,助力全球互联网互联互通,是星链大规模组网进程中的一颗在轨卫星。

基本信息
目录编号:
56917
目录名称:
STARLINK-5971
国际标识:
2023-083AT
轨道中心:
EARTH
卫星名称:
星链-5971
卫星全名:
星链-5971 (STARLINK-5971 )
卫星状态:
在轨 (已飞行1098 天)
发射日期:
2023-06-12 UTC
国别 :
美国 (US)
星等 :
--
轨道信息
数据来源 国际轨道数据 AOE轨道数据
星历时间 2026-06-14T20:17:59+0800
10小时前
查看轨道信息
2026-06-08T07:00:00+0800
6天前
查看轨道信息
半长轴 6861.207km 6861.207km
偏心率 0.0001235 0.0001684
轨道倾角 43.000° 43.002°
近地点辐角 267.272° 266.729°
升交点赤经 244.074° 281.092°
平近点角 92.799° 7.958°
近地点 482.222km 481.914km
远地点 483.918km 484.226km
周期 94.267分钟 94.267分钟
每日圈数 15.275731 15.275733
详细信息
固有亮度:
5
最大亮度:
2.4
卫星平台:
Starlink v1.5
覆盖范围:
全球
运营商:
太空探索技术公司
运营商所在国:
美国
制造商(研发单位):
太空探索技术公司
制造商所在国:
美国
使用方式:
暂无
卫星简介
星链(Starlink)计划是由太空探索技术公司(SpaceX)提出的一个巨型低轨卫星互联网星座项目,计划在2019年至2024年间在太空搭建由约1.2万颗卫星组成的“星链”网络,其中1584颗将部署在地球上空550千米处的近地轨道,并从2020年开始工作。该卫星仍在工作。
2D轨道图
3D轨道图
轨道高度分析图
轨道倾角分析图
轨道综合分析图
查看轨道综合分析图